Location: Goettingen
(51.5300°N, 9.9433°E)
Time: 06:06:01
(UTC+02:00)

ISS - Pass Details

Date: 23 May 2018
Orbit: 402 x 407 km, 51.6° (Epoch: 24 May)

Event Time Altitude Azimuth Distance (km) Brightness Sun altitude
Rises 00:35:21 0° 266° (W) 2,319 0.1 -17.4°
Reaches altitude 10° 00:37:26 10° 267° (W) 1,459 -0.9 -17.4°
Maximum altitude 00:40:42 87° 356° (N) 409 -3.9 -17.5°
Drops below altitude 10° 00:43:59 10° 87° (E) 1,458 -1.1 -17.6°
Sets 00:46:03 0° 87° (E) 2,318 0.0 -17.6°
